Weather Service Report


982 
ASUS44 KOUN 270010
RWROK 

WEATHER ROUNDUP FOR OKLAHOMA
NATIONAL WEATHER SERVICE NORMAN OK
600 PM CST SUN FEB 26 2017

NOTE: "FAIR" INDICATES FEW OR NO CLOUDS BELOW 12,000 FEET WITH NO
      SIGNIFICANT WEATHER AND/OR OBSTRUCTIONS TO VISIBILITY.

OKZ001>007-009>012-014-015-017-270100-
NORTHWEST OKLAHOMA AND THE PANHANDLE
  
CITY           SKY/WX    TMP DP  RH WIND       PRES   REMARKS
GAGE           CLEAR     55  17  22 NE10      29.87R                  
6HR MIN TEMP:  53; 6HR MAX TEMP:  59;                                

GUYMON         PTCLDY    51   6  16 SE9       29.81S                  
ENID/WOODRING  PTCLDY    54  34  47 CALM      29.90R                  
$$

OKZ016-021>023-033>039-044-045-270100-
SOUTHWEST OKLAHOMA
  
CITY           SKY/WX    TMP DP  RH WIND       PRES   REMARKS
LAWTON/REGL    CLEAR     61  37  41 NW3       29.88R                  
LAWTON/FT SILL MOCLDY    60  38  44 CALM      29.86R                  
FREDERICK      PTCLDY    60  36  40 E5        29.84R                  
CLINTON        CLEAR     54  32  43 E8        29.88R                  
HOBART         PTCLDY    57  35  43 E5        29.87S                  
ALTUS AFB      CLEAR     58  33  38 E8        29.86S                  
$$

OKZ018>020-024>031-270100-
CENTRAL OKLAHOMA
  
CITY           SKY/WX    TMP DP  RH WIND       PRES   REMARKS
OKLAHOMA CITY  CLOUDY    55  34  45 S5        29.89R                  
6HR MIN TEMP:  55; 6HR MAX TEMP:  59;                                

OKC/WILEY POST PTCLDY    55  35  47 W3        29.90R                  
OKC/TINKER AFB MOCLDY    55  34  44 S6        29.88R                  
STILLWATER     CLEAR     57  30  35 CALM      29.89R                  
GUTHRIE        CLEAR     57  33  40 N3        29.90R                  
$$

OKZ008-013-054>072-270100-
NORTHEAST OKLAHOMA
  
CITY           SKY/WX    TMP DP  RH WIND       PRES   REMARKS
TULSA          MOCLDY    56  34  43 S6        29.90R                  
6HR MIN TEMP:  51; 6HR MAX TEMP:  59;                                

TULSA/JONES    MOCLDY    57  34  41 CALM      29.91R                  
PONCA CITY     CLEAR     55  27  34 CALM      29.91R                  
BARTLESVILLE   CLEAR     51  27  39 E7        29.94R                  
MUSKOGEE       CLOUDY    54  37  52 SE9       29.94R                  
$$

OKZ032-040>043-046>053-073>077-270100-
SOUTH CENTRAL/SOUTHEAST OKLAHOMA
  
CITY           SKY/WX    TMP DP  RH WIND       PRES   REMARKS
ARDMORE/DWNTWN PTCLDY    59  46  63 S7        29.87R                  
MCALESTER      CLOUDY    55  34  45 SE5       29.91S                  
$$

  

Return to Home page


Western Regional Climate Center, wrcc@dri.edu